Location: Newark
(33.6439°N, 114.9881°W)
Time: 05:20:44
(UTC+00:00)

A-11 Canister half - Pass Details

Date: 27 August 2019
Orbit: 1527 x 1682 km, 47.3° (Epoch: 19 September)

Event Time Altitude Azimuth Distance (km) Brightness Sun altitude
Rises 03:31:42 0° 288° (WNW) 4,928 13.4 -16.3°
Reaches altitude 10° 03:37:10 10° 265° (W) 3,920 12.0 -17.3°
Maximum altitude 03:41:26 14° 239° (WSW) 3,617 11.3 -18.1°
Drops below altitude 10° 03:45:41 10° 213° (SSW) 3,873 11.2 -18.9°
Sets 03:51:06 0° 189° (S) 4,822 11.4 -19.9°
